Desert Lake Discharge




Date Panel Temperature (degC) Canal Conductivity (mS/m) Canal Flow (cfs) Canal Height (ft) Water Temperature (degC) Air Temperature (degF) Water Balance (pH) Canal Conductivity in micro-Siemens (┬ÁS/cm)
07/01/2017 3.51 116.80 3,513.00
07/02/2017 3.52 117.00 3,518.00
07/03/2017 3.51 116.80 3,513.00
07/04/2017 3.51 116.70 3,513.00
07/05/2017 3.51 116.70 3,513.00
07/06/2017 3.51 116.70 3,507.00
07/07/2017 3.51 116.70 3,512.00
07/08/2017 3.51 116.80 3,512.00
07/09/2017 3.51 116.80 3,513.00
07/10/2017 3.51 116.90 3,512.00
07/11/2017 3.51 116.90 3,512.00
07/12/2017 3.52 116.90 3,518.00
07/13/2017 3.51 117.00 3,512.00
07/14/2017 3.51 116.80 3,513.00
07/15/2017 3.51 116.80 3,507.00
07/16/2017 3.51 116.80 3,513.00
07/17/2017 3.51 116.70 3,512.00
07/18/2017 3.51 116.70 3,513.00
07/19/2017 3.51 116.90 3,512.00
07/20/2017 3.51 116.90 3,513.00
07/21/2017 3.51 116.90 3,513.00
07/22/2017 3.51 116.90 3,513.00
07/23/2017 3.51 116.70 3,513.00
07/24/2017 3.51 116.90 3,513.00
07/25/2017 3.52 117.00 3,523.00
07/26/2017 3.52 117.00 3,523.00
07/27/2017 3.51 116.80 3,513.00
07/28/2017 3.52 116.90 3,518.00
07/29/2017 3.51 116.90 3,512.00
07/30/2017 3.51 116.90 3,512.00
07/31/2017 3.51 116.80 3,512.00
Average 116.84
Maximum 117.00
Minimum 116.70
Total Volume (AF) 7,182.43